Regional Weather Roundup
Issued by NWS Goodland, KS

Home | Current Version | Previous Version | Graphics & Text | Print | Product List | Glossary On
Versions: 1 2 3 4 5 6 7 8 9 10 11 12 13 14 15 16 17 18 19 20 21 22 23 24 25 26 27 28 29 30 31 32 33 34 35 36 37 38 39 40 41 42 43 44 45 46 47 48 49 50
000
ASUS43 KGLD 221059
RWRGLD

GOODLAND FORECAST AREA HOURLY WEATHER ROUNDUP
NATIONAL WEATHER SERVICE GOODLAND KS
400 AM MST MON JAN 22 2018

...OFFICIAL OBSERVATIONS...

CITY           SKY/WX    TMP DP  RH WIND       PRES   REMARKS
GOODLAND KS    FOG       27  25  92 NW40G56   29.78R VSB 1/4 WCI   9
HILL CITY KS   LGT SNOW  32  30  92 NW36G46   29.61R VSB 3/4 WCI  16
IMPERIAL NEB   CLOUDY    27  26  96 NW33G43   29.83R FOG     WCI  10
MCCOOK NEB     SNOW      29  29 100 N33G47    29.72R VSB 1/2 WCI  13
AKRON CO       CLOUDY    22  16  78 NW24      29.92R WCI   5
BURLINGTON CO  FOG       26  24  92 NW33G51   29.84R VSB 1   WCI   9
LIMON CO       CLOUDY    22  14  71 N24       29.92R WCI   5
$$

...UNOFFICIAL OBSERVATIONS...

CITY           SKY/WX    TMP DP  RH WIND       PRES   REMARKS
SHARON SPRINGS   N/A     27  26  95 NW35G49     N/A  WCI  10
KIT CARSON CO    N/A     24  21  89 MISG        N/A
YUMA CO        LGT SNOW  23  21  93 NW23G35   29.91R WCI   7
$$



USA.gov is the U.S. government's official web portal to all federal, state and local government web resources and services.